WXM80 ListenWXM80 Stop

You find our weather info also at:

UK Metoffice

WeatherCloud

Weather Underground

Northeastern Weather Network

AWEKAS

Citizen Weather Observer Program (CWOP)

HAMweather, WeatherForYou, PWS Weather


Weather Underground History page Text

Daily Summary for January 24, 2018 Units:  Metric    English   Both
« Previous Day
Next Day »
Daily Weekly Monthly Yearly Custom
  High: Low: Average:
Temperature: -17.8 °C -2.2 °C 3 °C
Dew Point: -17.8 °C -7.7 °C -2.9 °C
Humidity: Humidity % 55 % 65 %
Wind Speed: 0 km/h 2.6 km/h 8.9 km/h
Wind Gust: 0 km/h - -
Wind:- - WNW
Pressure: 0 hPa 997.9 hPa -
Precipitation: 0 mm    
Historical Graphs
 
 
Tabular Data for January 24, 2018
Time Temperature Dew Point Pressure Wind Wind Speed Wind Gust Humidity Rainfall Rate (Hourly)
-17.8 °C -17.8 °C 0 hPa Calm     Humidity % 0 mm
00:02 5.6 °C 1.2 °C 997.9 hPa WSW 6.1 km/h 13 km/h 73 % 0 mm
00:07 5.5 °C 1.1 °C 997.9 hPa SW 6.8 km/h 12.9 km/h 73 % 0 mm
00:12 5.4 °C 0.8 °C 997.9 hPa SW 9.3 km/h 20.4 km/h 72 % 0 mm
00:17 5.4 °C 1 °C 997.9 hPa WSW 4.2 km/h 13 km/h 73 % 0 mm
00:22 5.4 °C 0.9 °C 997.9 hPa SW 9.5 km/h 16.7 km/h 73 % 0 mm
00:27 5.3 °C 0.9 °C 998.2 hPa SW 8.4 km/h 13 km/h 73 % 0 mm
00:32 5.3 °C 1 °C 998.2 hPa West 6.9 km/h 13 km/h 74 % 0 mm
00:37 5.3 °C 1 °C 997.9 hPa SW 9.5 km/h 19.3 km/h 74 % 0 mm
00:48 5.2 °C 0.9 °C 997.9 hPa SW 5.6 km/h 11.1 km/h 74 % 0 mm
00:53 5.2 °C 1.1 °C 997.9 hPa West 10.5 km/h 16.7 km/h 75 % 0 mm
00:58 5.1 °C 0.8 °C 997.9 hPa WSW 6.6 km/h 13 km/h 74 % 0 mm
01:03 5.1 °C 0.8 °C 997.9 hPa West 7.1 km/h 14.8 km/h 74 % 0 mm
01:08 5.1 °C 0.8 °C 997.9 hPa WSW 3.9 km/h 9.3 km/h 74 % 0 mm
01:13 5 °C 0.7 °C 997.9 hPa WSW 5.8 km/h 11.3 km/h 74 % 0 mm
01:18 5 °C 0.7 °C 997.9 hPa SW 4.2 km/h 13 km/h 74 % 0 mm
01:23 5 °C 0.7 °C 997.9 hPa SW 7.2 km/h 11.1 km/h 74 % 0 mm
01:28 4.9 °C 0.7 °C 997.9 hPa SSW 6.4 km/h 9.3 km/h 74 % 0 mm
01:33 4.9 °C 0.7 °C 997.9 hPa SSW 6.6 km/h 9.3 km/h 74 % 0 mm
01:38 4.9 °C 0.7 °C 997.9 hPa SW 4.8 km/h 8 km/h 74 % 0 mm
01:43 4.9 °C 0.7 °C 998.2 hPa SW 6 km/h 11.1 km/h 74 % 0 mm
01:48 4.9 °C 0.7 °C 998.2 hPa SW 7.2 km/h 11.1 km/h 74 % 0 mm
01:53 4.9 °C 0.7 °C 998.2 hPa WSW 7.4 km/h 13 km/h 74 % 0 mm
01:58 4.9 °C 0.7 °C 998.5 hPa SSW 7.7 km/h 13 km/h 74 % 0 mm
02:08 4.9 °C 0.5 °C 998.5 hPa WSW 6.3 km/h 16.1 km/h 73 % 0 mm
02:13 4.9 °C 0.5 °C 998.5 hPa SW 3.5 km/h 14.8 km/h 73 % 0 mm
02:18 4.9 °C 0.5 °C 998.5 hPa SW 8.4 km/h 13 km/h 73 % 0 mm
02:23 4.9 °C 0.5 °C 998.5 hPa WSW 6.9 km/h 13 km/h 73 % 0 mm
02:28 5 °C 0.6 °C 998.5 hPa SW 7.2 km/h 9.3 km/h 73 % 0 mm
02:38 4.9 °C 0.5 °C 998.5 hPa West 9.8 km/h 20.9 km/h 73 % 0 mm
02:43 5 °C 0.6 °C 998.5 hPa WSW 8.9 km/h 8.9 km/h 73 % 0 mm
02:49 5 °C 0.6 °C 998.5 hPa SW 9.3 km/h 14.8 km/h 73 % 0 mm
02:54 5 °C 0.6 °C 998.9 hPa SW 7.7 km/h 11.1 km/h 73 % 0 mm
02:59 5 °C 0.6 °C 998.5 hPa West 5.1 km/h 13 km/h 73 % 0 mm
03:04 5 °C 0.6 °C 998.5 hPa WSW 4.7 km/h 13 km/h 73 % 0 mm
03:09 5 °C 0.6 °C 998.5 hPa WSW 3.7 km/h 9.3 km/h 73 % 0 mm
03:14 5.1 °C 0.6 °C 998.9 hPa SW 5.3 km/h 7.4 km/h 73 % 0 mm
03:19 5 °C 0.6 °C 998.9 hPa SSW 6.9 km/h 13 km/h 73 % 0 mm
03:29 5 °C 0.6 °C 998.9 hPa SW 5 km/h 7.4 km/h 73 % 0 mm
03:34 5 °C 0.6 °C 998.9 hPa West 9.3 km/h 18.5 km/h 73 % 0 mm
03:39 5 °C 0.6 °C 998.9 hPa WSW 6 km/h 11.3 km/h 73 % 0 mm
03:44 5.1 °C 0.6 °C 998.9 hPa SSW 5.3 km/h 16.1 km/h 73 % 0 mm
03:49 5.1 °C 0.7 °C 998.9 hPa WSW 4.7 km/h 7.4 km/h 73 % 0 mm
03:54 5.2 °C 0.8 °C 998.9 hPa West 10.5 km/h 18.5 km/h 73 % 0 mm
03:59 5.2 °C 0.6 °C 998.9 hPa WNW 2.9 km/h 9.3 km/h 72 % 0 mm
04:04 5.3 °C 0.6 °C 998.9 hPa WSW 6.1 km/h 13 km/h 72 % 0 mm
04:09 5.3 °C 0.7 °C 998.9 hPa WNW 3.7 km/h 20.4 km/h 72 % 0 mm
04:14 5.4 °C 0.7 °C 999.2 hPa WSW 6.9 km/h 18.5 km/h 72 % 0 mm
04:19 5.4 °C 0.8 °C 999.2 hPa SW 8.9 km/h 13 km/h 72 % 0 mm
04:29 5.6 °C 0.9 °C 999.2 hPa WSW 3.7 km/h 5.6 km/h 72 % 0 mm
04:34 5.6 °C 0.9 °C 999.2 hPa SW 8 km/h 13 km/h 72 % 0 mm
04:39 5.6 °C 0.9 °C 999.2 hPa SW 5.6 km/h 12.9 km/h 72 % 0 mm
04:44 5.6 °C 0.9 °C 999.5 hPa SW 9.7 km/h 14.8 km/h 72 % 0 mm
04:49 5.5 °C 0.8 °C 999.5 hPa SW 5.3 km/h 11.1 km/h 72 % 0 mm
04:55 5.5 °C 0.8 °C 999.5 hPa WSW 3.5 km/h 9.7 km/h 72 % 0 mm
05:00 5.5 °C 0.8 °C 999.5 hPa WSW 7.7 km/h 11.1 km/h 72 % 0 mm
05:05 5.4 °C 1 °C 999.5 hPa WSW 7.9 km/h 13 km/h 73 % 0 mm
05:10 5.5 °C 1.1 °C 999.9 hPa WSW 10.5 km/h 18.5 km/h 73 % 0 mm
05:15 5.6 °C 1.1 °C 999.9 hPa West 3.4 km/h 7.4 km/h 73 % 0 mm
05:20 5.6 °C 1.1 °C 999.9 hPa WNW 10.3 km/h 20.9 km/h 73 % 0 mm
05:25 5.6 °C 0.9 °C 1000.2 hPa WSW 2.6 km/h 8 km/h 72 % 0 mm
05:30 5.7 °C 1 °C 1000.2 hPa WSW 6.9 km/h 13 km/h 72 % 0 mm
05:35 5.7 °C 1.1 °C 1000.2 hPa WSW 10 km/h 16.7 km/h 72 % 0 mm
05:40 5.8 °C 1.1 °C 1000.2 hPa West 7.9 km/h 14.8 km/h 72 % 0 mm
05:45 5.8 °C 0.9 °C 1000.2 hPa WSW 10.5 km/h 18.5 km/h 71 % 0 mm
05:50 5.8 °C 0.9 °C 1000.6 hPa WNW 10.1 km/h 13 km/h 71 % 0 mm
05:55 5.8 °C 0.7 °C 1000.6 hPa SW 8.7 km/h 17.7 km/h 70 % 0 mm
06:00 5.8 °C 0.8 °C 1000.9 hPa NW 7.4 km/h 17.7 km/h 70 % 0 mm
06:05 5.8 °C 0.8 °C 1000.9 hPa WNW 6.1 km/h 9.3 km/h 70 % 0 mm
06:10 5.8 °C 0.6 °C 1000.9 hPa WNW 7.9 km/h 18.5 km/h 69 % 0 mm
06:15 5.8 °C 0.5 °C 1000.9 hPa WSW 8.7 km/h 14.8 km/h 69 % 0 mm
06:20 5.8 °C 0.5 °C 1000.9 hPa WSW 10 km/h 16.7 km/h 69 % 0 mm
06:25 5.7 °C 0.4 °C 1000.9 hPa WNW 17.4 km/h 27.8 km/h 69 % 0 mm
06:30 5.7 °C 0.1 °C 1001.2 hPa West 10 km/h 18.5 km/h 67 % 0 mm
06:35 5.7 °C -0.2 °C 1001.2 hPa West 12.6 km/h 18.5 km/h 66 % 0 mm
06:40 5.6 °C -0.9 °C 1001.6 hPa WNW 11.3 km/h 27.8 km/h 63 % 0 mm
06:45 5.6 °C -0.7 °C 1001.6 hPa West 16.4 km/h 27.8 km/h 64 % 0 mm
06:50 5.5 °C -1 °C 1001.6 hPa West 11.3 km/h 33.8 km/h 63 % 0 mm
06:55 5.5 °C -1 °C 1001.9 hPa West 14.5 km/h 32.2 km/h 63 % 0 mm
07:01 5.4 °C -0.8 °C 1001.6 hPa NW 10 km/h 20.4 km/h 64 % 0 mm
07:06 5.3 °C -0.9 °C 1002.3 hPa WSW 10.5 km/h 18.5 km/h 64 % 0 mm
07:11 5.3 °C -1 °C 1002.3 hPa West 8.4 km/h 22.2 km/h 64 % 0 mm
07:16 5.2 °C -1.1 °C 1002.3 hPa WNW 8.5 km/h 17.7 km/h 64 % 0 mm
07:21 5.2 °C -1.1 °C 1002.6 hPa NW 16.6 km/h 27.8 km/h 64 % 0 mm
07:26 5.1 °C -1.2 °C 1002.6 hPa West 14.2 km/h 24.1 km/h 64 % 0 mm
07:31 5.1 °C -1 °C 1002.6 hPa WSW 5 km/h 14.8 km/h 65 % 0 mm
07:36 5 °C -1.1 °C 1002.6 hPa NW 11.1 km/h 18.5 km/h 65 % 0 mm
07:41 4.9 °C -0.9 °C 1002.9 hPa WSW 6.8 km/h 11.1 km/h 66 % 0 mm
07:46 4.9 °C -0.9 °C 1002.9 hPa West 8.9 km/h 16.7 km/h 66 % 0 mm
07:51 4.9 °C -0.9 °C 1002.9 hPa West 10.5 km/h 14.8 km/h 66 % 0 mm
07:56 4.9 °C -0.7 °C 1003.3 hPa West 6.6 km/h 16.7 km/h 67 % 0 mm
08:01 4.9 °C -0.7 °C 1003.3 hPa NW 8.4 km/h 11.3 km/h 67 % 0 mm
08:06 4.9 °C -0.5 °C 1003.3 hPa West 9.8 km/h 16.7 km/h 68 % 0 mm
08:16 4.9 °C -0.7 °C 1003.6 hPa WNW 12.9 km/h 27.8 km/h 67 % 0 mm
08:21 4.8 °C -0.8 °C 1003.9 hPa West 10.5 km/h 22.2 km/h 67 % 0 mm
08:26 4.8 °C -0.8 °C 1003.6 hPa West 6.8 km/h 18.5 km/h 67 % 0 mm
08:31 4.8 °C -0.6 °C 1003.9 hPa NW 12.2 km/h 14.8 km/h 68 % 0 mm
08:36 4.7 °C -0.9 °C 1003.6 hPa West 9.2 km/h 29.6 km/h 67 % 0 mm
08:41 4.7 °C -1.2 °C 1003.9 hPa WSW 10.5 km/h 19.3 km/h 66 % 0 mm
08:46 4.6 °C -1 °C 1004.3 hPa NNW 13.4 km/h 13.4 km/h 67 % 0 mm
08:52 4.6 °C -1 °C 1004.3 hPa West 7.2 km/h 25.9 km/h 67 % 0 mm
08:57 4.7 °C -0.9 °C 1004.3 hPa West 11.3 km/h 17.7 km/h 67 % 0 mm
09:07 4.8 °C -1.3 °C 1004.3 hPa West 15.3 km/h 27.8 km/h 65 % 0 mm
09:12 4.8 °C -1.1 °C 1004.6 hPa WNW 9.8 km/h 20.4 km/h 66 % 0 mm
09:17 4.7 °C -1.1 °C 1004.6 hPa WNW 7.9 km/h 24.1 km/h 66 % 0 mm
09:22 4.8 °C -1.1 °C 1004.6 hPa NW 2.6 km/h 7.4 km/h 66 % 0 mm
09:27 4.8 °C -1.1 °C 1004.6 hPa NW 8.5 km/h 14.8 km/h 66 % 0 mm
09:32 4.8 °C -1.1 °C 1005 hPa WNW 8.2 km/h 14.8 km/h 66 % 0 mm
09:37 4.7 °C -1.1 °C 1005 hPa West 7.1 km/h 16.7 km/h 66 % 0 mm
09:42 4.7 °C -1.1 °C 1005.3 hPa WNW 10 km/h 16.7 km/h 66 % 0 mm
09:47 4.8 °C -1.1 °C 1005.3 hPa West 10.3 km/h 18.5 km/h 66 % 0 mm
09:52 4.8 °C -0.8 °C 1005.3 hPa WNW 10 km/h 16.7 km/h 67 % 0 mm
10:02 4.8 °C -0.8 °C 1005.6 hPa NNW 8.4 km/h 11.3 km/h 67 % 0 mm
10:07 4.7 °C -0.9 °C 1005.6 hPa West 9 km/h 16.7 km/h 67 % 0 mm
10:22 4.3 °C -1.3 °C 1006 hPa WNW 9.8 km/h 18.5 km/h 67 % 0 mm
10:27 4.3 °C -1.1 °C 1006 hPa WNW 11.9 km/h 14.8 km/h 68 % 0 mm
10:32 4.3 °C -1.1 °C 1006 hPa WNW 10 km/h 16.7 km/h 68 % 0 mm
10:37 4.3 °C -1.1 °C 1006 hPa WNW 13 km/h 25.9 km/h 68 % 0 mm
10:47 4.4 °C -0.9 °C 1005.6 hPa West 11.1 km/h 17.7 km/h 68 % 0 mm
10:58 4.6 °C -1.2 °C 1006 hPa WSW 10.1 km/h 20.9 km/h 66 % 0 mm
11:03 4.7 °C -1.3 °C 1005.6 hPa WNW 16.1 km/h 29.6 km/h 65 % 0 mm
11:08 4.8 °C -1.6 °C 1005.6 hPa NW 10.5 km/h 20.4 km/h 63 % 0 mm
11:13 4.9 °C -1.3 °C 1005.6 hPa NW 7.4 km/h 11.3 km/h 64 % 0 mm
11:18 5 °C -1.7 °C 1005.6 hPa NW 13.8 km/h 24.1 km/h 62 % 0 mm
11:28 5.1 °C -1.4 °C 1005.3 hPa NNW 16.4 km/h 20.4 km/h 63 % 0 mm
11:33 5.1 °C -1.8 °C 1005.3 hPa WNW 8.4 km/h 17.7 km/h 61 % 0 mm
11:38 5 °C -1.7 °C 1005.3 hPa WNW 6.8 km/h 24.1 km/h 62 % 0 mm
11:43 5 °C -1.7 °C 1005.6 hPa WNW 7.2 km/h 18.5 km/h 62 % 0 mm
11:58 4.8 °C -2.1 °C 1005 hPa West 8.2 km/h 20.4 km/h 61 % 0 mm
12:03 4.8 °C -2.3 °C 1005.3 hPa WNW 15 km/h 25.9 km/h 60 % 0 mm
12:08 4.7 °C -2.2 °C 1005.3 hPa SSW 6.3 km/h 24.1 km/h 61 % 0 mm
12:13 4.7 °C -2.2 °C 1005.3 hPa WNW 8.7 km/h 24.1 km/h 61 % 0 mm
12:23 4.9 °C -2.2 °C 1005.3 hPa NNW 10 km/h 18.5 km/h 60 % 0 mm
12:28 4.9 °C -2.4 °C 1005 hPa WNW 12.6 km/h 31.5 km/h 59 % 0 mm
12:33 5 °C -2.6 °C 1005 hPa WNW 6.1 km/h 13 km/h 58 % 0 mm
12:43 5.2 °C -2.2 °C 1005.3 hPa NW 10.8 km/h 24.1 km/h 59 % 0 mm
12:48 5.1 °C -2.5 °C 1005 hPa NW 13.5 km/h 25.9 km/h 58 % 0 mm
12:54 5.1 °C -2.7 °C 1005.3 hPa WNW 10.6 km/h 27.4 km/h 57 % 0 mm
13:09 5.1 °C -2.6 °C 1005.3 hPa SW 9 km/h 24.1 km/h 58 % 0 mm
13:14 5.1 °C -2.8 °C 1005.3 hPa WNW 7.7 km/h 20.4 km/h 57 % 0 mm
13:19 5 °C -3.1 °C 1005.3 hPa West 10.8 km/h 25.9 km/h 56 % 0 mm
13:24 5 °C -2.8 °C 1005.3 hPa WSW 9.7 km/h 22.2 km/h 57 % 0 mm
13:29 4.9 °C -2.9 °C 1005.3 hPa WNW 12.4 km/h 24.1 km/h 57 % 0 mm
13:34 4.9 °C -2.7 °C 1005.3 hPa North 6.4 km/h 14.8 km/h 58 % 0 mm
13:39 4.9 °C -2.9 °C 1005.3 hPa West 13.4 km/h 24.1 km/h 57 % 0 mm
13:44 4.8 °C -3 °C 1005.3 hPa NW 15 km/h 25.7 km/h 57 % 0 mm
13:49 4.8 °C -3.1 °C 1005.3 hPa NW 14.2 km/h 24.1 km/h 57 % 0 mm
13:54 4.7 °C -3.1 °C 1005.3 hPa WNW 13.4 km/h 20.4 km/h 57 % 0 mm
13:59 4.7 °C -3.1 °C 1005.3 hPa NW 6.3 km/h 16.7 km/h 57 % 0 mm
14:04 4.7 °C -3.1 °C 1005.6 hPa WNW 17.2 km/h 22.2 km/h 57 % 0 mm
14:09 4.6 °C -3.7 °C 1005.6 hPa WNW 14.8 km/h 33.3 km/h 55 % 0 mm
14:14 4.4 °C -3.3 °C 1005.6 hPa WNW 16.3 km/h 29.6 km/h 57 % 0 mm
14:19 4.3 °C -3.3 °C 1005.6 hPa NNW 12.2 km/h 20.9 km/h 58 % 0 mm
14:24 4.2 °C -3.6 °C 1006 hPa WNW 6 km/h 24.1 km/h 57 % 0 mm
14:29 4.1 °C -3.9 °C 1006 hPa WNW 8.7 km/h 24.1 km/h 56 % 0 mm
14:34 4 °C -3.8 °C 1006.3 hPa WNW 15.4 km/h 20.4 km/h 57 % 0 mm
14:39 3.8 °C -3.7 °C 1006.3 hPa WNW 15.1 km/h 22.2 km/h 58 % 0 mm
14:44 3.7 °C -3.6 °C 1006.7 hPa WNW 10.9 km/h 27.8 km/h 59 % 0 mm
14:50 3.5 °C -4 °C 1006.7 hPa WNW 9.3 km/h 31.5 km/h 58 % 0 mm
15:00 3.2 °C -4.3 °C 1006.7 hPa West 9 km/h 18.5 km/h 58 % 0 mm
15:05 3.2 °C -4.6 °C 1006.7 hPa West 18.2 km/h 25.9 km/h 57 % 0 mm
15:10 3.1 °C -4.7 °C 1007 hPa NW 12.4 km/h 20.4 km/h 57 % 0 mm
15:20 2.9 °C -4.6 °C 1007 hPa WNW 12.7 km/h 24.1 km/h 58 % 0 mm
15:25 2.8 °C -4.8 °C 1007 hPa NNW 11.1 km/h 20.4 km/h 57 % 0 mm
15:35 2.7 °C -4.6 °C 1007 hPa NNW 9.2 km/h 22.2 km/h 59 % 0 mm
15:40 2.7 °C -4.6 °C 1007.3 hPa West 12.7 km/h 20.4 km/h 59 % 0 mm
15:45 2.6 °C -4.7 °C 1007.3 hPa WNW 12.1 km/h 20.4 km/h 59 % 0 mm
15:50 2.5 °C -5.2 °C 1007.3 hPa WNW 9 km/h 22.2 km/h 57 % 0 mm
15:55 2.5 °C -4.9 °C 1007.7 hPa West 9.2 km/h 14.8 km/h 58 % 0 mm
16:00 2.4 °C -5 °C 1007.3 hPa West 11.7 km/h 24.1 km/h 58 % 0 mm
16:05 2.4 °C -5.1 °C 1007.7 hPa WNW 7.9 km/h 18.5 km/h 58 % 0 mm
16:10 2.3 °C -5.3 °C 1007.7 hPa WSW 11.9 km/h 20.4 km/h 57 % 0 mm
16:15 2.3 °C -5.4 °C 1007.7 hPa NNW 10.8 km/h 20.4 km/h 57 % 0 mm
16:20 2.2 °C -5.2 °C 1007.7 hPa West 6.4 km/h 11.1 km/h 58 % 0 mm
16:25 2.1 °C -5.1 °C 1008 hPa NW 5.8 km/h 13 km/h 59 % 0 mm
16:30 2.1 °C -4.9 °C 1008 hPa NW 4.7 km/h 9.3 km/h 60 % 0 mm
16:35 2 °C -4.7 °C 1008 hPa NW 9 km/h 22.2 km/h 61 % 0 mm
16:40 1.9 °C -5.1 °C 1008 hPa WNW 12.7 km/h 27.4 km/h 60 % 0 mm
16:46 1.8 °C -5.1 °C 1008.4 hPa WNW 12.1 km/h 20.9 km/h 60 % 0 mm
16:51 1.8 °C -4.9 °C 1008.4 hPa WNW 8 km/h 14.5 km/h 61 % 0 mm
16:56 1.7 °C -5 °C 1008.4 hPa WNW 4.8 km/h 19.3 km/h 61 % 0 mm
17:01 1.7 °C -4.8 °C 1008.4 hPa West 5.8 km/h 14.8 km/h 62 % 0 mm
17:06 1.6 °C -5.1 °C 1008.7 hPa NW 10.8 km/h 22.2 km/h 61 % 0 mm
17:11 1.5 °C -5 °C 1008.7 hPa WSW 6.9 km/h 18.5 km/h 62 % 0 mm
17:16 1.4 °C -5.3 °C 1008.7 hPa WNW 12.2 km/h 20.9 km/h 61 % 0 mm
17:21 1.4 °C -5.3 °C 1009 hPa NNW 8 km/h 19.3 km/h 61 % 0 mm
17:26 1.3 °C -4.9 °C 1009 hPa NW 10 km/h 18.5 km/h 63 % 0 mm
17:31 1.3 °C -5 °C 1009 hPa West 10.1 km/h 20.4 km/h 63 % 0 mm
17:36 1.2 °C -5.1 °C 1009 hPa WNW 10.3 km/h 16.7 km/h 63 % 0 mm
17:41 1.2 °C -5.1 °C 1009 hPa NW 7.1 km/h 18.5 km/h 63 % 0 mm
17:46 1.1 °C -5.4 °C 1009.4 hPa WNW 7.4 km/h 14.5 km/h 62 % 0 mm
17:51 1.1 °C -5.4 °C 1009.4 hPa WNW 8.9 km/h 13 km/h 62 % 0 mm
17:56 0.9 °C -5.5 °C 1009.4 hPa NW 12.9 km/h 20.4 km/h 62 % 0 mm
18:01 0.9 °C -5.5 °C 1009.4 hPa NW 6.1 km/h 18.5 km/h 62 % 0 mm
18:06 0.9 °C -5.4 °C 1009.7 hPa West 4.7 km/h 18.5 km/h 63 % 0 mm
18:11 0.8 °C -5.6 °C 1009.7 hPa NW 8.2 km/h 18.5 km/h 62 % 0 mm
18:16 0.8 °C -5.5 °C 1009.7 hPa WNW 11.1 km/h 11.1 km/h 63 % 0 mm
18:21 0.8 °C -5.5 °C 1009.7 hPa NW 8 km/h 14.5 km/h 63 % 0 mm
18:26 0.7 °C -5.5 °C 1009.7 hPa WNW 8.2 km/h 18.5 km/h 63 % 0 mm
18:31 0.7 °C -5.8 °C 1009.7 hPa WNW 12.1 km/h 18.5 km/h 62 % 0 mm
18:36 0.7 °C -5.4 °C 1009.7 hPa NW 9.7 km/h 20.4 km/h 64 % 0 mm
18:42 0.6 °C -5.6 °C 1009.7 hPa WNW 10.1 km/h 16.1 km/h 63 % 0 mm
18:47 0.6 °C -5.6 °C 1009.7 hPa WNW 7.7 km/h 16.7 km/h 63 % 0 mm
18:52 0.6 °C -5.9 °C 1009.7 hPa NW 8.4 km/h 20.4 km/h 62 % 0 mm
18:57 0.5 °C -5.7 °C 1010 hPa West 7.6 km/h 22.5 km/h 63 % 0 mm
19:02 0.4 °C -6 °C 1010 hPa NW 11.4 km/h 20.4 km/h 62 % 0 mm
19:07 0.3 °C -6.1 °C 1010 hPa NW 11.4 km/h 27.8 km/h 62 % 0 mm
19:12 0.3 °C -6.1 °C 1010 hPa WNW 10.9 km/h 20.4 km/h 62 % 0 mm
19:17 0.2 °C -6 °C 1009.7 hPa West 16.7 km/h 29.6 km/h 63 % 0 mm
19:22 0.2 °C -6 °C 1010 hPa North 5.3 km/h 24.1 km/h 63 % 0 mm
19:27 0.2 °C -6.1 °C 1010 hPa WNW 8.7 km/h 18.5 km/h 63 % 0 mm
19:32 0.1 °C -6.1 °C 1010 hPa NW 8 km/h 19.3 km/h 63 % 0 mm
19:37 0.1 °C -6.2 °C 1010.4 hPa NNW 10.6 km/h 24.1 km/h 63 % 0 mm
19:42 0 °C -6.2 °C 1010.4 hPa WNW 9.2 km/h 16.7 km/h 63 % 0 mm
19:47 -0.1 °C -5.8 °C 1010.4 hPa NW 6.3 km/h 11.1 km/h 65 % 0 mm
19:52 -0.1 °C -6.1 °C 1010.4 hPa WNW 8.5 km/h 18.5 km/h 64 % 0 mm
19:57 -0.2 °C -6.4 °C 1010.4 hPa NW 7.6 km/h 24.1 km/h 63 % 0 mm
20:02 -0.2 °C -6.4 °C 1010.4 hPa NNW 9.2 km/h 14.8 km/h 63 % 0 mm
20:07 -0.2 °C -6.4 °C 1010.7 hPa NNW 9.8 km/h 18.5 km/h 63 % 0 mm
20:12 -0.3 °C -6.3 °C 1010.7 hPa NNW 10.3 km/h 16.7 km/h 64 % 0 mm
20:17 -0.3 °C -6.6 °C 1010.7 hPa North 10 km/h 31.5 km/h 63 % 0 mm
20:22 -0.3 °C -6.3 °C 1010.7 hPa NW 10.1 km/h 20.4 km/h 64 % 0 mm
20:27 -0.4 °C -6.6 °C 1010.7 hPa NW 10.9 km/h 22.2 km/h 63 % 0 mm
20:32 -0.4 °C -6.4 °C 1010.7 hPa NW 10.1 km/h 18.5 km/h 64 % 0 mm
20:37 -0.5 °C -6.5 °C 1010.7 hPa NW 10.9 km/h 22.5 km/h 64 % 0 mm
20:43 -0.6 °C -6.7 °C 1010.7 hPa NW 13 km/h 20.4 km/h 63 % 0 mm
20:48 -0.6 °C -6.6 °C 1011.1 hPa NW 8.4 km/h 20.4 km/h 64 % 0 mm
20:53 -0.7 °C -6.7 °C 1011.1 hPa West 6.9 km/h 20.4 km/h 64 % 0 mm
20:58 -0.7 °C -6.7 °C 1011.1 hPa NW 11.4 km/h 24.1 km/h 64 % 0 mm
21:03 -0.8 °C -6.7 °C 1011.1 hPa WNW 14 km/h 25.9 km/h 64 % 0 mm
21:08 -0.8 °C -6.8 °C 1011.1 hPa NW 7.4 km/h 18.5 km/h 64 % 0 mm
21:13 -0.8 °C -6.6 °C 1011.1 hPa WNW 8.4 km/h 18.5 km/h 65 % 0 mm
21:18 -0.9 °C -6.8 °C 1011.4 hPa NW 9.5 km/h 18.5 km/h 64 % 0 mm
21:23 -0.9 °C -6.9 °C 1011.4 hPa NNW 8 km/h 14.8 km/h 64 % 0 mm
21:28 -0.9 °C -6.7 °C 1011.4 hPa NW 6.1 km/h 13 km/h 65 % 0 mm
21:33 -1 °C -6.8 °C 1011.7 hPa NW 10 km/h 14.8 km/h 65 % 0 mm
21:38 -1.1 °C -7 °C 1011.7 hPa NNW 9.2 km/h 20.4 km/h 64 % 0 mm
21:43 -1.1 °C -7 °C 1011.7 hPa NNW 10.6 km/h 18.5 km/h 64 % 0 mm
21:48 -1.1 °C -7.3 °C 1011.7 hPa NW 11.4 km/h 22.2 km/h 63 % 0 mm
21:53 -1.2 °C -7.1 °C 1011.7 hPa NNW 6.4 km/h 18.5 km/h 64 % 0 mm
21:58 -1.2 °C -7.1 °C 1011.7 hPa NNW 10.8 km/h 19.3 km/h 64 % 0 mm
22:03 -1.2 °C -6.9 °C 1011.7 hPa NW 5.3 km/h 13 km/h 65 % 0 mm
22:08 -1.2 °C -6.9 °C 1012.1 hPa NNW 8.5 km/h 16.7 km/h 65 % 0 mm
22:13 -1.3 °C -7 °C 1012.1 hPa NW 9.8 km/h 13 km/h 65 % 0 mm
22:18 -1.3 °C -7.1 °C 1012.1 hPa WNW 7.4 km/h 16.7 km/h 65 % 0 mm
22:23 -1.3 °C -7.1 °C 1012.1 hPa NW 7.2 km/h 18.5 km/h 65 % 0 mm
22:28 -1.4 °C -7.1 °C 1012.1 hPa NNW 6 km/h 14.8 km/h 65 % 0 mm
22:33 -1.4 °C -7.4 °C 1012.1 hPa WNW 12.2 km/h 14.8 km/h 64 % 0 mm
22:38 -1.5 °C -7.4 °C 1012.4 hPa NW 14 km/h 22.2 km/h 64 % 0 mm
22:43 -1.5 °C -7.4 °C 1012.4 hPa WNW 6.9 km/h 13 km/h 64 % 0 mm
22:49 -1.6 °C -7.5 °C 1012.4 hPa WNW 4 km/h 13 km/h 64 % 0 mm
22:54 -1.6 °C -7.6 °C 1012.4 hPa NW 6.9 km/h 20.4 km/h 64 % 0 mm
22:59 -1.7 °C -7.6 °C 1012.4 hPa West 6.4 km/h 14.8 km/h 64 % 0 mm
23:04 -1.7 °C -7.7 °C 1012.4 hPa NW 5.8 km/h 11.3 km/h 64 % 0 mm
23:09 -1.7 °C -7.7 °C 1012.4 hPa North 3.5 km/h 16.7 km/h 64 % 0 mm
23:14 -1.8 °C -7.5 °C 1012.4 hPa NW 4.3 km/h 14.8 km/h 65 % 0 mm
23:19 -1.8 °C -7.7 °C 1012.4 hPa NNW 4.5 km/h 16.7 km/h 64 % 0 mm
23:24 -1.8 °C -7.3 °C 1012.8 hPa West 6.1 km/h 12.9 km/h 66 % 0 mm
23:29 -1.9 °C -7.6 °C 1012.4 hPa NW 5.1 km/h 9.3 km/h 65 % 0 mm
23:34 -1.9 °C -7.4 °C 1012.4 hPa NNW 4.3 km/h 13 km/h 66 % 0 mm
23:39 -1.9 °C -7.4 °C 1012.4 hPa NW 4 km/h 8 km/h 66 % 0 mm
23:44 -2 °C -7.5 °C 1012.4 hPa NNW 8.4 km/h 14.8 km/h 66 % 0 mm
23:49 -2.1 °C -7.6 °C 1012.4 hPa NW 6.6 km/h 11.1 km/h 66 % 0 mm
23:54 -2.1 °C -7.4 °C 1012.4 hPa NNE 9 km/h 16.7 km/h 67 % 0 mm
23:59 -2.2 °C -7.1 °C 1012.8 hPa North 6.1 km/h 14.8 km/h 69 % 0 mm
Crab Meadow Weather
Compliments of Weather Underground - 2.75 mb

Script developed by  Jim McMurry - jmcmurry@mwt.net Adapted for the template by  Wim van der Kuil - Leuven-Template.eu

Weather Terms: Winter Storms - These are weather hazards associated with freezing or frozen precipitation (freezing rain, sleet, snow) or combined effects of winter precipitation and strong winds.